Weather History for McAlester, OK

Change the Weather History Date:

Tuesday, May 21, 2013

  Actual Average Record
Temperature  
Mean Temperature 66 °F -  
Max Temperature 68 °F 79 °F 91 °F (1987)
Min Temperature 57 °F 60 °F 48 °F (1963)
Growing Degree Days 16 (Base 50)    
Moisture  
Dew Point 62 °F    
Average Humidity 97    
Maximum Humidity 100    
Minimum Humidity 73    
Precipitation  
Precipitation 3.90 in - - ()
Sea Level Pressure  
Sea Level Pressure 29.82 in    
Wind  
Wind Speed 11 mph (ENE)    
Max Wind Speed 30 mph    
Max Gust Speed 44 mph    
Visibility 6 miles    
Events Fog , Rain , Thunderstorm    
Averages and records for this station are not official NWS values.
T = Trace of Precipitation, MM = Missing Value Source: NWS Daily Summary

Daily Weather History Graph

Daily Weather History Graph

Search for Another Location

Airport:

Trip Planner

Search our weather history database for the weather conditions in past years. The results will help you decide how hot, cold, wet, or windy it might be!

Date:

Astronomy

May. 21, 2013 Rise Set
Actual Time 6:15 AM CDT 8:24 PM CDT
Civil Twilight 5:47 AM CDT 8:52 PM CDT
Nautical Twilight 5:12 AM CDT 9:27 PM CDT
Astronomical Twilight 4:34 AM CDT 10:05 PM CDT
Moon 4:46 PM CDT (5/21) 3:34 AM CDT (5/21)
Length of Visible Light 15h 05m
Length of Day
14h 08m
Waxing Gibbous, 84% of the Moon is Illuminated
May 21
Waxing Gibbous
May 24
Full
May 31
Last Quarter
Jun 8
New
Jun 16
First Quarter

Hourly Weather History & Observations

Time (CDT) Temp. Dew Point Humidity Pressure Visibility Wind Dir Wind Speed Gust Speed Precip Events Conditions
12:30 AM 69.8 °F 64.4 °F 83% 29.79 in 9.0 mi SSW 9.2 mph - 0.01 in Rain , Thunderstorm Light Rain
12:53 AM 72.0 °F 63.0 °F 73% 29.76 in 10.0 mi West 10.4 mph - 0.02 in Rain , Thunderstorm Light Thunderstorms and Rain
1:03 AM 66.2 °F 60.8 °F 83% 29.81 in 1.8 mi NW 29.9 mph 43.7 mph 0.14 in Rain , Thunderstorm Heavy Thunderstorms and Rain
1:10 AM 64.4 °F 60.8 °F 88% 29.79 in 2.0 mi North 16.1 mph 35.7 mph 0.20 in Rain , Thunderstorm Thunderstorms and Rain
1:53 AM 64.0 °F 63.0 °F 96% 29.83 in 1.8 mi NNW 21.9 mph 36.8 mph 0.32 in Rain , Thunderstorm Heavy Thunderstorms and Rain
2:01 AM 64.4 °F 62.6 °F 94% 29.87 in 3.0 mi NW 17.3 mph 26.5 mph 0.01 in Rain , Thunderstorm Light Thunderstorms and Rain
2:22 AM 64.4 °F 62.6 °F 94% 29.87 in 2.0 mi SSW 8.1 mph - 0.22 in Rain , Thunderstorm Heavy Thunderstorms and Rain
2:38 AM 64.4 °F 60.8 °F 88% 29.83 in 6.0 mi NNW 6.9 mph - 0.33 in Rain , Thunderstorm Thunderstorms and Rain
2:53 AM 63.0 °F 61.0 °F 93% 29.80 in 8.0 mi SE 8.1 mph - 0.36 in Rain , Thunderstorm Thunderstorms and Rain
3:28 AM 62.6 °F 62.6 °F 100% 29.79 in 10.0 mi ESE 3.5 mph - 0.08 in   Mostly Cloudy
3:53 AM 62.1 °F 62.1 °F 100% 29.77 in 10.0 mi Calm Calm - 0.08 in   Mostly Cloudy
4:17 AM 62.6 °F 62.6 °F 100% 29.79 in 10.0 mi Calm Calm - N/A Thunderstorm Overcast
4:35 AM 62.6 °F 62.6 °F 100% 29.78 in 10.0 mi ESE 6.9 mph - N/A   Overcast
4:53 AM 63.0 °F 62.1 °F 97% 29.75 in 10.0 mi ESE 6.9 mph - N/A   Overcast
5:08 AM 64.4 °F 62.6 °F 94% 29.81 in 10.0 mi NNW 12.7 mph 21.9 mph N/A Thunderstorm Overcast
5:21 AM 64.4 °F 62.6 °F 94% 29.81 in 10.0 mi NNE 4.6 mph - N/A Thunderstorm Overcast
5:53 AM 66.0 °F 63.0 °F 90% 29.79 in 10.0 mi NNE 5.8 mph - N/A Thunderstorm Overcast
6:03 AM 64.4 °F 62.6 °F 94% 29.80 in 10.0 mi NE 10.4 mph - N/A   Overcast
6:53 AM 64.9 °F 62.1 °F 90% 29.80 in 10.0 mi Variable 5.8 mph - N/A Thunderstorm Overcast
7:23 AM 62.6 °F 62.6 °F 100% 29.84 in 1.8 mi NNE 13.8 mph - 0.27 in Rain , Thunderstorm Heavy Thunderstorms and Rain
7:28 AM 62.6 °F 62.6 °F 100% 29.82 in 0.8 mi NNE 12.7 mph 20.7 mph 0.48 in Rain , Thunderstorm Heavy Thunderstorms and Rain
7:32 AM 62.6 °F 62.6 °F 100% 29.85 in 1.0 mi North 6.9 mph 20.7 mph 0.51 in Rain , Thunderstorm Heavy Thunderstorms and Rain
7:41 AM 62.6 °F 62.6 °F 100% 29.85 in 1.8 mi NNE 9.2 mph - 0.58 in Rain , Thunderstorm Heavy Thunderstorms and Rain
7:53 AM 63.0 °F 63.0 °F 100% 29.81 in 1.5 mi NE 8.1 mph - 0.68 in Rain , Thunderstorm Heavy Thunderstorms and Rain
8:04 AM 62.6 °F 62.6 °F 100% 29.81 in 0.8 mi East 5.8 mph - 0.18 in Rain , Thunderstorm Heavy Thunderstorms and Rain
8:09 AM 62.6 °F 62.6 °F 100% 29.80 in 1.0 mi ESE 10.4 mph - 0.25 in Rain , Thunderstorm Heavy Thunderstorms and Rain
8:14 AM 62.6 °F 62.6 °F 100% 29.83 in 2.0 mi Variable 4.6 mph - 0.30 in Rain , Thunderstorm Heavy Thunderstorms and Rain
8:30 AM 62.6 °F 62.6 °F 100% 29.83 in 1.8 mi SSE 8.1 mph - 0.53 in Rain , Thunderstorm Heavy Thunderstorms and Rain
8:44 AM 62.6 °F 62.6 °F 100% 29.84 in 2.0 mi Variable 4.6 mph - 0.71 in Rain , Thunderstorm Heavy Thunderstorms and Rain
8:53 AM 63.0 °F 63.0 °F 100% 29.83 in 1.8 mi ESE 5.8 mph - 0.82 in Rain , Thunderstorm Heavy Thunderstorms and Rain
9:01 AM 62.6 °F 62.6 °F 100% 29.86 in 2.5 mi SE 9.2 mph - 0.07 in Rain , Thunderstorm Heavy Thunderstorms and Rain
9:20 AM 62.6 °F 62.6 °F 100% 29.82 in 4.0 mi ESE 11.5 mph 19.6 mph 0.19 in Rain , Thunderstorm Light Thunderstorms and Rain
9:28 AM 62.6 °F 62.6 °F 100% 29.83 in 6.0 mi ESE 10.4 mph 19.6 mph 0.21 in Rain , Thunderstorm Rain
9:53 AM 62.1 °F 62.1 °F 100% 29.83 in 6.0 mi East 10.4 mph 20.7 mph 0.24 in Rain , Thunderstorm Thunderstorms and Rain
10:18 AM 62.6 °F 60.8 °F 94% 29.88 in 1.8 mi ESE 9.2 mph - 0.20 in Rain , Thunderstorm Heavy Rain
10:49 AM 62.6 °F 60.8 °F 94% 29.86 in 3.0 mi East 11.5 mph 18.4 mph 0.42 in Rain , Thunderstorm Thunderstorms and Rain
10:53 AM 62.1 °F 61.0 °F 96% 29.84 in 3.0 mi East 9.2 mph 18.4 mph 0.44 in Rain , Thunderstorm Heavy Thunderstorms and Rain
11:36 AM 60.8 °F 60.8 °F 100% 29.87 in 7.0 mi East 8.1 mph 16.1 mph 0.08 in Rain , Thunderstorm Light Thunderstorms and Rain
11:53 AM 61.0 °F 61.0 °F 100% 29.82 in 9.0 mi East 11.5 mph 18.4 mph 0.08 in Rain Light Rain
11:55 AM 60.8 °F 60.8 °F 100% 29.83 in 9.0 mi East 11.5 mph 21.9 mph 0.00 in Rain , Thunderstorm Light Rain
12:16 PM 60.8 °F 60.8 °F 100% 29.84 in 10.0 mi ESE 8.1 mph 19.6 mph 0.01 in Rain Light Rain
12:24 PM 60.8 °F 60.8 °F 100% 29.82 in 10.0 mi East 11.5 mph 19.6 mph 0.01 in Rain Light Rain
12:42 PM 60.8 °F 60.8 °F 100% 29.80 in 10.0 mi East 11.5 mph 21.9 mph 0.02 in Rain , Thunderstorm Light Rain
12:53 PM 62.1 °F 61.0 °F 96% 29.77 in 10.0 mi ESE 11.5 mph 17.3 mph 0.02 in Rain Light Rain
1:11 PM 62.6 °F 62.6 °F 100% 29.77 in 10.0 mi ESE 11.5 mph 20.7 mph 0.00 in Thunderstorm Thunderstorm
1:25 PM 62.6 °F 62.6 °F 100% 29.75 in 10.0 mi ESE 10.4 mph 21.9 mph 0.00 in Rain , Thunderstorm Light Rain
1:53 PM 64.0 °F 62.1 °F 93% 29.74 in 10.0 mi East 10.4 mph 23.0 mph 0.00 in Thunderstorm Mostly Cloudy
2:13 PM 64.4 °F 62.6 °F 94% 29.91 in 1.8 mi WNW 23.0 mph 33.4 mph 0.16 in Rain , Thunderstorm Heavy Thunderstorms and Rain
2:17 PM 62.6 °F 62.6 °F 100% 29.92 in 0.8 mi WNW 25.3 mph 36.8 mph 0.30 in Rain , Thunderstorm Heavy Thunderstorms and Rain
2:21 PM 62.6 °F 62.6 °F 100% 29.91 in 0.5 mi NW 21.9 mph 36.8 mph 0.36 in Fog , Rain , Thunderstorm Heavy Thunderstorms and Rain
2:26 PM 62.6 °F 62.6 °F 100% 29.92 in 0.8 mi WNW 21.9 mph 34.5 mph 0.50 in Rain , Thunderstorm Heavy Thunderstorms and Rain
2:37 PM 62.6 °F 60.8 °F 94% 29.93 in 1.5 mi NW 17.3 mph 34.5 mph 0.61 in Rain , Thunderstorm Rain
2:40 PM 62.6 °F 60.8 °F 94% 29.95 in 2.5 mi WNW 19.6 mph 33.4 mph 0.62 in Rain , Thunderstorm Heavy Rain
2:53 PM 60.1 °F 59.0 °F 96% 29.95 in 5.0 mi NW 18.4 mph 24.2 mph 0.65 in Rain , Thunderstorm Rain
3:01 PM 60.8 °F 59.0 °F 94% 29.94 in 5.0 mi NNW 13.8 mph 24.2 mph 0.02 in Rain , Thunderstorm Rain
3:53 PM 59.0 °F 59.0 °F 100% 29.77 in 5.0 mi ENE 10.4 mph 19.6 mph 0.17 in Rain , Thunderstorm Rain
4:21 PM 60.8 °F 59.0 °F 94% 29.72 in 10.0 mi East 13.8 mph 32.2 mph 0.01 in Rain , Thunderstorm Light Thunderstorms and Rain
4:35 PM 60.8 °F 60.8 °F 100% 29.73 in 10.0 mi East 9.2 mph 21.9 mph 0.02 in Rain , Thunderstorm Light Thunderstorms and Rain
4:51 PM 60.8 °F 60.8 °F 100% 29.75 in 10.0 mi Variable 5.8 mph - 0.02 in   Mostly Cloudy
4:53 PM 60.1 °F 60.1 °F 100% 29.74 in 10.0 mi ESE 5.8 mph - 0.02 in   Mostly Cloudy
5:53 PM 61.0 °F 60.1 °F 97% 29.72 in 10.0 mi East 9.2 mph - N/A   Clear
6:53 PM 63.0 °F 60.1 °F 90% 29.76 in 10.0 mi North 4.6 mph - N/A   Clear
7:45 PM 60.8 °F 60.8 °F 100% 29.79 in 10.0 mi WNW 3.5 mph - N/A   Mostly Cloudy
7:53 PM 61.0 °F 61.0 °F 100% 29.79 in 10.0 mi WNW 6.9 mph - N/A   Mostly Cloudy
8:53 PM 61.0 °F 61.0 °F 100% 29.83 in 10.0 mi West 4.6 mph - N/A   Overcast
9:53 PM 61.0 °F 59.0 °F 93% 29.85 in 10.0 mi WNW 5.8 mph - N/A   Overcast
10:53 PM 61.0 °F 60.1 °F 97% 29.85 in 10.0 mi Calm Calm - N/A   Overcast
11:43 PM 59.0 °F 59.0 °F 100% 29.85 in 10.0 mi SSE 3.5 mph - N/A   Partly Cloudy
11:53 PM 57.9 °F 57.9 °F 100% 29.84 in 10.0 mi Calm Calm - N/A   Partly Cloudy